[[{"header":{"parameterUnit":"m.s-1","parameterCategory":2,"la1":30.2992,"la2":30.254,"lo1":-89.0895,"lo2":-89.0443,"dy":0.0025,"dx":0.0025,"nx":19,"ny":19,"refTime":"2026-03-19T09:00:00:Z","depth":"0","parameterNumber":2,"parameterNumberName":"U-component_of_CURRENTS"},"data":[0,0,0,0.0698,0.0697,0.0649,0.0649,0.0536,0.0535,0,0,0,0,0,0,0,0,0,0,0,0.0715,0.0715,0.0698,0.0697,0.0649,0.0649,0.0537,0.0535,0,0,0,0,0,0,0,0,0,0,0,0.0715,0.0715,0.0715,0.0697,0.0649,0.0649,0.0537,0.0583,0,0,0,0,0,0,0,0,0,0,0.0635,0.0673,0.0715,0.0715,0.0697,0.0649,0.0649,0.0586,0.058,0.0547,0,0.0549,0,0.0542,0.0528,0.0527,0,0,0,0.0686,0.0678,0.0656,0.0715,0.0697,0.0649,0.0668,0.0583,0.0577,0.054,0.0547,0.0543,0.054,0.0527,0.0526,0.0496,0.0497,0,0,0.0689,0.071,0.0661,0.0652,0.0694,0.0669,0.0666,0.058,0.0581,0.0547,0.0541,0.0539,0.0526,0.0525,0.0496,0.0496,0,0,0,0.0704,0.0712,0.0693,0.0657,0.0654,0.0668,0.0665,0.0585,0.0577,0.0539,0.0537,0.0526,0.0524,0.0495,0.0496,0.0803,0,0,0,0.0705,0.0722,0.0695,0.0707,0.0656,0.0629,0.0672,0.0583,0.0573,0.0538,0.0525,0.0523,0.0494,0.0495,0.0794,0.0895,0,0,0,0.0716,0.0723,0.0719,0.0709,0.0692,0.063,0.0617,0.0581,0.0572,0.0527,0.0523,0.0494,0.0495,0.0785,0.088,0.0993,0,0,0,0.0736,0.0755,0.072,0.0738,0.0692,0.0678,0.0617,0.0599,0.0569,0.0525,0.0495,0.0496,0.0783,0.0871,0.0984,0.1039,0.1086,0,0,0.0774,0.0761,0.0771,0.0738,0.0769,0.0683,0.0756,0.0691,0.0575,0.0516,0.0515,0.0797,0.0879,0.0991,0.111,0.1156,0,0,0,0.0792,0.0814,0.0806,0.0822,0.0784,0.0844,0.0767,0.0761,0.076,0.0565,0.0735,0.0775,0.0838,0.0849,0.0885,0.091,0.0502,0.0501,0.0501,0.0913,0.0895,0.0937,0.0936,0.0942,0.0955,0.102,0.0994,0.0861,0.0915,0.0984,0.1212,0.1227,0.1255,0.1281,0.0947,0.0948,0.0949,0.095,0.1023,0.1065,0.1067,0.1101,0.1148,0.1204,0.1276,0.1273,0.1366,0.12,0.1247,0.1117,0.1313,0.1325,0.0969,0.0966,0.0963,0.0961,0.096,0.1135,0.1153,0.1158,0.1225,0.133,0.1371,0.1521,0.1574,0.1589,0.1699,0.1602,0.1596,0.164,0.1697,0.1698,0.1699,0.17,0.1701,0.1701,0.1246,0.1249,0.1287,0.1348,0.1389,0.1501,0.1649,0.175,0.1884,0.1897,0.1896,0.1717,0.1437,0.1446,0.1717,0.1714,0.1712,0.1711,0.1709,0.1379,0.1342,0.1392,0.1419,0.1499,0.1586,0.1724,0.1953,0.2081,0.2179,0.2161,0.1992,0.1881,0.1847,0.1861,0.2223,0.2223,0.2223,0.2223,0.1451,0.1445,0.1458,0.1478,0.1551,0.1623,0.1795,0.1993,0.2251,0.2369,0.2391,0.2267,0.2244,0.2143,0.2103,0.2115,0.2534,0.2534,0.2534,0.1523,0.1504,0.1517,0.1495,0.1546,0.1641,0.1768,0.196,0.2359,0.2546,0.2436,0.2423,0.2228,0.219,0.2001,0.1943,0.1947,0,0]},{"header":{"parameterUnit":"m.s-1","parameterCategory":2,"la1":30.2992,"la2":30.254,"lo1":-89.0895,"lo2":-89.0443,"dy":0.0025,"dx":0.0025,"nx":19,"ny":19,"refTime":"2026-03-19T09:00:00:Z","depth":"0","parameterNumber":3,"parameterNumberName":"V-component_of_CURRENTS"},"data":[0,0,0,-0.0268,-0.0265,-0.0201,-0.0201,-0.0386,-0.0388,0,0,0,0,0,0,0,0,0,0,0,-0.0317,-0.0316,-0.0268,-0.0265,-0.0201,-0.0201,-0.0386,-0.0388,0,0,0,0,0,0,0,0,0,0,0,-0.0317,-0.0316,-0.0315,-0.0265,-0.0201,-0.0201,-0.0385,-0.0376,0,0,0,0,0,0,0,0,0,0,-0.0409,-0.0444,-0.0316,-0.0315,-0.0264,-0.0201,-0.0201,-0.0373,-0.0377,-0.048,0,-0.0455,0,-0.0405,-0.0403,-0.0404,0,0,0,-0.0301,-0.044,-0.037,-0.0315,-0.0263,-0.0201,-0.024,-0.0373,-0.0378,-0.0486,-0.0457,-0.0461,-0.0408,-0.0404,-0.0406,-0.0497,-0.0496,0,0,-0.0305,-0.0367,-0.0366,-0.0372,-0.0234,-0.0242,-0.0238,-0.0373,-0.0412,-0.0457,-0.0464,-0.0411,-0.0406,-0.0408,-0.0498,-0.0497,0,0,0,-0.0291,-0.037,-0.0293,-0.0368,-0.0322,-0.0239,-0.0234,-0.0407,-0.0364,-0.0465,-0.0413,-0.0407,-0.041,-0.0498,-0.0497,-0.0241,0,0,0,-0.0295,-0.0357,-0.0295,-0.034,-0.0317,-0.0336,-0.0266,-0.0356,-0.0367,-0.0412,-0.0407,-0.0412,-0.0499,-0.0498,-0.025,-0.0132,0,0,0,-0.0322,-0.0362,-0.0336,-0.0342,-0.0287,-0.033,-0.0299,-0.0356,-0.0336,-0.0404,-0.0413,-0.05,-0.0498,-0.0257,-0.0147,-0.0104,0,0,0,-0.0412,-0.0346,-0.0339,-0.0278,-0.0287,-0.0196,-0.0297,-0.0296,-0.0343,-0.0408,-0.0499,-0.0497,-0.026,-0.0156,-0.0111,-0.0157,-0.0125,0,0,-0.0355,-0.0343,-0.0299,-0.0286,-0.015,-0.0208,-0.0113,-0.0228,-0.0358,-0.0483,-0.0483,-0.0247,-0.0148,-0.0105,-0.0063,-0.0033,0,0,0,-0.0296,-0.0232,-0.0208,-0.0133,-0.0101,-0.0029,-0.0112,-0.0136,-0.02,-0.0367,-0.0286,-0.0233,-0.0213,-0.0259,-0.0235,-0.0226,-0.049,-0.049,-0.049,-0.0248,-0.0181,-0.0069,0.0031,0.006,0.0083,0.0124,0.0066,-0.0095,-0.0073,-0.0051,0.0119,0.0075,0.0091,0.0104,-0.009,-0.0089,-0.0088,-0.0088,-0.0064,0.0023,0.0088,0.0231,0.0276,0.0337,0.0356,0.0308,0.031,0.0163,0.0167,-0.0021,0.0132,0.0135,-0.0072,-0.0075,-0.0077,-0.0078,-0.0079,0.0029,0.0075,0.0173,0.0341,0.047,0.05,0.0599,0.0586,0.0518,0.0567,0.0372,0.0365,0.0385,0.0514,0.0515,0.0516,0.0516,0.0517,0.0517,0.0041,0.0153,0.0262,0.0444,0.0521,0.0631,0.0718,0.0732,0.0701,0.0635,0.0632,0.0445,0.03,0.0296,0.0529,0.0527,0.0525,0.0524,0.0523,0.0099,0.0118,0.0287,0.038,0.0577,0.0689,0.077,0.0805,0.0812,0.0796,0.0708,0.0637,0.0531,0.0507,0.0504,0.0777,0.0777,0.0777,0.0777,0.0053,0.0107,0.0256,0.0397,0.0561,0.0701,0.0789,0.0867,0.0863,0.0858,0.0825,0.0708,0.0697,0.0592,0.0566,0.056,0.0841,0.0841,0.0841,0.0009,0.0076,0.0157,0.0355,0.0549,0.0691,0.0806,0.0966,0.0948,0.0848,0.0868,0.0865,0.0692,0.0673,0.049,0.0454,0.0433,0,0]}],[{"header":{"parameterUnit":"m.s-1","parameterCategory":2,"la1":30.2992,"la2":30.254,"lo1":-89.0895,"lo2":-89.0443,"dy":0.0025,"dx":0.0025,"nx":19,"ny":19,"refTime":"2026-03-19T09:00:00:Z","depth":"2","parameterNumber":2,"parameterNumberName":"U-component_of_CURRENTS"},"data":[0,0,0,0.0676,0.0677,0.0727,0.0727,0.0821,0.0822,0,0,0,0,0,0,0,0,0,0,0,0.0663,0.0664,0.0676,0.0677,0.0727,0.0727,0.0821,0.0822,0,0,0,0,0,0,0,0,0,0,0,0.0663,0.0664,0.0664,0.0677,0.0727,0.0727,0.082,0.0776,0,0,0,0,0,0,0,0,0,0,0.0724,0.0699,0.0663,0.0664,0.0678,0.0727,0.0727,0.0774,0.0779,0.0806,0,0.0816,0,0.0819,0.0828,0.0829,0,0,0,0.068,0.0695,0.0715,0.0664,0.0678,0.0727,0.0705,0.0776,0.0782,0.0813,0.0817,0.082,0.0821,0.0829,0.083,0.0853,0.0853,0,0,0.0677,0.0667,0.0711,0.0719,0.0695,0.0704,0.0707,0.078,0.0784,0.0817,0.0822,0.0822,0.083,0.083,0.0854,0.0853,0,0,0,0.0667,0.0665,0.0683,0.0716,0.0721,0.0705,0.0709,0.0781,0.0789,0.0823,0.0823,0.083,0.0832,0.0854,0.0853,0.1005,0,0,0,0.0666,0.0659,0.0682,0.0675,0.072,0.0746,0.0708,0.0784,0.0792,0.0823,0.083,0.0832,0.0855,0.0854,0.1002,0.1082,0,0,0,0.066,0.0658,0.0666,0.0674,0.0695,0.0744,0.0756,0.0786,0.0792,0.0829,0.0833,0.0855,0.0854,0.1,0.1076,0.1142,0,0,0,0.0644,0.0662,0.0666,0.0689,0.0694,0.0724,0.0756,0.0774,0.0799,0.0831,0.0855,0.0853,0.0999,0.1072,0.1137,0.1034,0.1045,0,0,0.0659,0.0664,0.0678,0.0683,0.0735,0.0717,0.078,0.0821,0.079,0.0835,0.0836,0.1003,0.1075,0.1141,0.0967,0.0981,0,0,0,0.0677,0.0698,0.0709,0.0743,0.0755,0.082,0.0825,0.0839,0.0884,0.08,0.0936,0.0975,0.1014,0.094,0.0949,0.0848,0.0848,0.0848,0.0848,0.0703,0.0725,0.0768,0.081,0.0837,0.0883,0.0942,0.0956,0.0919,0.0938,0.105,0.1136,0.1054,0.1061,0.0983,0.0984,0.0984,0.0985,0.0985,0.0753,0.0783,0.0831,0.0885,0.095,0.1004,0.1087,0.1098,0.1196,0.1114,0.1144,0.104,0.1081,0.0996,0.0994,0.0992,0.0991,0.099,0.099,0.0785,0.08,0.0845,0.0927,0.1028,0.1094,0.1214,0.1284,0.1316,0.139,0.126,0.1255,0.1276,0.1389,0.139,0.1391,0.1391,0.1392,0.1392,0.0785,0.083,0.0875,0.0965,0.1023,0.1136,0.1289,0.1363,0.1418,0.1407,0.1405,0.1272,0.1259,0.1295,0.1402,0.14,0.1399,0.1398,0.1397,0.0793,0.0806,0.0869,0.0922,0.1047,0.1104,0.1253,0.136,0.1458,0.147,0.1404,0.14,0.1344,0.133,0.1365,0.1484,0.1484,0.1484,0.1484,0.0773,0.0791,0.0856,0.0927,0.1017,0.1092,0.1108,0.11,0.1205,0.1196,0.1208,0.1069,0.1073,0.0991,0.0986,0.1009,0.1036,0.1035,0.1034,0.0752,0.0778,0.0819,0.0902,0.0996,0.1038,0.0952,0.0815,0.0879,0.1011,0.1077,0.1464,0.1287,0.1282,0.1172,0.1158,0.12,0,0]},{"header":{"parameterUnit":"m.s-1","parameterCategory":2,"la1":30.2992,"la2":30.254,"lo1":-89.0895,"lo2":-89.0443,"dy":0.0025,"dx":0.0025,"nx":19,"ny":19,"refTime":"2026-03-19T09:00:00:Z","depth":"2","parameterNumber":3,"parameterNumberName":"V-component_of_CURRENTS"},"data":[0,0,0,0.0062,0.0061,0.0039,0.0039,0.0097,0.0097,0,0,0,0,0,0,0,0,0,0,0,0.0103,0.0103,0.0062,0.006,0.0039,0.0039,0.0097,0.0097,0,0,0,0,0,0,0,0,0,0,0,0.0103,0.0103,0.0103,0.006,0.0039,0.0039,0.0097,0.0101,0,0,0,0,0,0,0,0,0,0,0.0115,0.0123,0.0103,0.0103,0.006,0.0039,0.004,0.0101,0.0101,0.0119,0,0.0111,0,0.0074,0.0099,0.0099,0,0,0,0.0099,0.0123,0.0107,0.0103,0.0059,0.0039,0.006,0.01,0.0101,0.0119,0.0111,0.0111,0.0075,0.0099,0.01,0.0071,0.007,0,0,0.01,0.0112,0.0107,0.0107,0.0048,0.006,0.0058,0.01,0.0105,0.0111,0.0112,0.0076,0.01,0.01,0.0072,0.0071,0,0,0,0.0078,0.0112,0.0096,0.0107,0.0078,0.0058,0.0057,0.0105,0.0096,0.0112,0.0077,0.01,0.01,0.0072,0.0071,0.0136,0,0,0,0.008,0.0096,0.0096,0.0105,0.0077,0.0075,0.0061,0.0095,0.0096,0.0077,0.01,0.0101,0.0073,0.0072,0.0136,0.0229,0,0,0,0.0105,0.0098,0.0092,0.0105,0.0072,0.0073,0.0069,0.0095,0.0073,0.0099,0.0101,0.0073,0.0072,0.0136,0.0226,0.0257,0,0,0,0.0123,0.0141,0.0093,0.0102,0.0072,0.0052,0.0068,0.0062,0.0081,0.01,0.0073,0.0071,0.0136,0.0223,0.0255,0.0221,0.0229,0,0,0.0162,0.0146,0.0152,0.0106,0.0117,0.0058,0.0068,0.0093,0.0066,0.0074,0.0073,0.0136,0.0225,0.0257,0.0143,0.0154,0,0,0,0.0174,0.0193,0.0182,0.0172,0.0126,0.0127,0.0092,0.007,0.0071,0.006,0.009,0.0145,0.0163,0.0135,0.0142,0.0065,0.0065,0.0065,0.0065,0.031,0.0269,0.0291,0.0248,0.0226,0.0167,0.0166,0.0128,0.0081,0.0064,0.0161,0.0189,0.0154,0.0161,0.0083,0.0084,0.0084,0.0084,0.0084,0.0403,0.0406,0.0376,0.0382,0.0345,0.0339,0.0268,0.0228,0.0222,0.0163,0.0174,0.016,0.0174,0.0088,0.0087,0.0087,0.0086,0.0086,0.0086,0.0484,0.0473,0.0481,0.0488,0.0513,0.0457,0.0499,0.043,0.0329,0.0346,0.029,0.0288,0.0285,0.0334,0.0335,0.0335,0.0336,0.0336,0.0337,0.0543,0.0545,0.0588,0.0594,0.063,0.0667,0.0637,0.0621,0.0511,0.0399,0.0397,0.0274,0.0266,0.0298,0.0345,0.0343,0.0342,0.0341,0.0341,0.0587,0.0604,0.0669,0.0718,0.0808,0.089,0.0843,0.0766,0.0702,0.0642,0.0401,0.0397,0.0387,0.0377,0.041,0.0484,0.0484,0.0484,0.0484,0.0627,0.0634,0.0756,0.0864,0.0968,0.1006,0.0993,0.0737,0.0529,0.0357,0.0362,0.0266,0.0263,0.024,0.0234,0.0261,0.0296,0.0296,0.0295,0.0657,0.0694,0.0802,0.0918,0.1053,0.1128,0.1035,0.0658,0.0338,0.0284,0.0293,0.0478,0.0345,0.0338,0.0306,0.0295,0.034,0,0]}],[{"header":{"parameterUnit":"m.s-1","parameterCategory":2,"la1":30.2992,"la2":30.254,"lo1":-89.0895,"lo2":-89.0443,"dy":0.0025,"dx":0.0025,"nx":19,"ny":19,"refTime":"2026-03-19T09:00:00:Z","depth":"4","parameterNumber":2,"parameterNumberName":"U-component_of_CURRENTS"},"data":[0,0,0,0.029,0.0291,0.0349,0.0349,0.0417,0.0417,0,0,0,0,0,0,0,0,0,0,0,0.028,0.028,0.029,0.0291,0.0349,0.0349,0.0417,0.0417,0,0,0,0,0,0,0,0,0,0,0,0.028,0.028,0.0281,0.0291,0.0349,0.0349,0.0417,0.0376,0,0,0,0,0,0,0,0,0,0,0.0321,0.031,0.028,0.0281,0.0292,0.0349,0.0349,0.0374,0.0378,0.0387,0,0.0402,0,0.0405,0.0421,0.0421,0,0,0,0.0297,0.0307,0.032,0.0281,0.0292,0.0349,0.0324,0.0377,0.0381,0.0393,0.0403,0.0406,0.0406,0.0422,0.0422,0.0476,0.0476,0,0,0.0293,0.0291,0.0317,0.0324,0.0315,0.0322,0.0326,0.038,0.0389,0.0404,0.0407,0.0407,0.0422,0.0422,0.0476,0.0476,0,0,0,0.028,0.0289,0.0302,0.0321,0.0329,0.0324,0.0328,0.0387,0.0391,0.0408,0.0408,0.0422,0.0423,0.0475,0.0476,0.0535,0,0,0,0.0279,0.0281,0.0301,0.03,0.0328,0.0359,0.0335,0.0388,0.0394,0.0408,0.0422,0.0424,0.0475,0.0476,0.0534,0.0529,0,0,0,0.0276,0.0281,0.0289,0.03,0.0321,0.0358,0.0365,0.0389,0.0393,0.0421,0.0424,0.0475,0.0475,0.0532,0.0526,0.0526,0,0,0,0.0268,0.028,0.029,0.0308,0.032,0.0349,0.0365,0.0392,0.0416,0.0423,0.0475,0.0476,0.0531,0.0525,0.0524,0.0419,0,0,0,0.0273,0.0281,0.029,0.03,0.0319,0.0341,0.037,0.0407,0.0424,0.0458,0.0459,0.0534,0.0526,0.0525,0.0441,0,0,0,0,0.0285,0.0288,0.0297,0.0315,0.034,0.0374,0.0399,0.043,0.0491,0.0439,0.0525,0.0517,0.0515,0.045,0.0477,0.0477,0.0477,0.0477,0.0477,0.0264,0.0283,0.0294,0.032,0.0346,0.0394,0.0434,0.0479,0.0497,0.054,0.0561,0.0588,0.0524,0.0569,0.057,0.057,0.057,0.057,0.057,0.0246,0.0243,0.0284,0.0309,0.0358,0.0401,0.0484,0.0525,0.0588,0.0603,0.0599,0.0511,0.0576,0.0575,0.0574,0.0574,0.0573,0.0573,0.0572,0.0201,0.0204,0.024,0.0284,0.035,0.0423,0.0481,0.0571,0.0624,0.0644,0.0556,0.0608,0.0607,0.0651,0.0651,0.0651,0.0651,0.0651,0.0651,0.0141,0.017,0.02,0.0259,0.0309,0.0392,0.0503,0.0523,0.0586,0.058,0.0652,0.0614,0.0612,0.061,0.0651,0.0651,0.0651,0.0651,0.0651,0.0079,0.0107,0.0141,0.0186,0.0282,0.0331,0.043,0.046,0.0466,0.0452,0.0539,0.0544,0.05,0.0499,0.0492,0.05,0.0498,0.0497,0,0.0038,0.0052,0.0111,0.0163,0.0213,0.0295,0.0292,0.032,0.0387,0.0406,0.0447,0.0545,0.0548,0.0497,0.0495,0.0484,0,0,0,0.0011,0.0035,0.007,0.0132,0.0196,0.0237,0.0295,0.0297,0.0404,0.0345,0.0466,0.0474,0.0491,0.0651,0.0594,0.0591,0.0585,0,0]},{"header":{"parameterUnit":"m.s-1","parameterCategory":2,"la1":30.2992,"la2":30.254,"lo1":-89.0895,"lo2":-89.0443,"dy":0.0025,"dx":0.0025,"nx":19,"ny":19,"refTime":"2026-03-19T09:00:00:Z","depth":"4","parameterNumber":3,"parameterNumberName":"V-component_of_CURRENTS"},"data":[0,0,0,0.0293,0.0293,0.0291,0.0291,0.0285,0.0285,0,0,0,0,0,0,0,0,0,0,0,0.0295,0.0295,0.0293,0.0293,0.0291,0.0291,0.0285,0.0285,0,0,0,0,0,0,0,0,0,0,0,0.0295,0.0295,0.0295,0.0293,0.0291,0.0291,0.0285,0.0287,0,0,0,0,0,0,0,0,0,0,0.0289,0.0292,0.0295,0.0295,0.0293,0.0291,0.0291,0.0287,0.0287,0.0284,0,0.0285,0,0.0284,0.0284,0.0284,0,0,0,0.0293,0.0293,0.0291,0.0295,0.0293,0.0291,0.0292,0.0287,0.0287,0.0284,0.0285,0.0285,0.0283,0.0284,0.0284,0.0291,0.0291,0,0,0.0293,0.0295,0.0292,0.0291,0.0294,0.0292,0.0292,0.0287,0.0288,0.0285,0.0285,0.0283,0.0284,0.0284,0.0291,0.0291,0,0,0,0.0293,0.0295,0.0294,0.0292,0.0291,0.0292,0.0292,0.0288,0.0287,0.0285,0.0283,0.0284,0.0284,0.0291,0.0291,0.0179,0,0,0,0.0293,0.0295,0.0294,0.0295,0.0291,0.029,0.0293,0.0288,0.0287,0.0283,0.0284,0.0284,0.0291,0.0291,0.0182,0.0129,0,0,0,0.0295,0.0295,0.0295,0.0296,0.0294,0.029,0.0289,0.0288,0.0286,0.0284,0.0284,0.0291,0.0291,0.0184,0.0134,0.012,0,0,0,0.0296,0.0274,0.0296,0.0279,0.0294,0.0292,0.0289,0.0294,0.0294,0.0284,0.0291,0.0291,0.0185,0.0137,0.0123,0.0199,0,0,0,0.0262,0.0271,0.0262,0.028,0.0257,0.0292,0.0261,0.0264,0.0297,0.0292,0.0292,0.0181,0.0134,0.0121,0.022,0,0,0,0,0.0247,0.0232,0.0235,0.0229,0.0247,0.0227,0.0248,0.0241,0.0227,0.0298,0.022,0.0195,0.0189,0.0244,0.0293,0.0293,0.0293,0.0293,0.0293,0.0156,0.0176,0.016,0.0175,0.0178,0.0184,0.0158,0.0159,0.02,0.0182,0.0131,0.0083,0.014,0.0169,0.0169,0.0168,0.0168,0.0167,0.0167,0.0092,0.0096,0.0106,0.0096,0.0096,0.0077,0.005,0.005,0.0012,0.0061,0.0062,0.0158,0.0157,0.0159,0.0161,0.0162,0.0163,0.0163,0.0164,0.0043,0.0058,0.0048,0.0051,0.0019,0.0016,-0.001,-0.0048,-0.0076,-0.0106,0.0017,0.0025,0.0003,-0.0079,-0.0079,-0.008,-0.008,-0.008,-0.008,0.0024,0.0022,0.0026,0.002,0.0021,0.0006,-0.0038,-0.0054,-0.0091,-0.0091,-0.0113,0.0001,0.0009,-0.0008,-0.0085,-0.0084,-0.0084,-0.0083,-0.0083,0.0026,0.0029,0.0036,0.004,0.0053,0.0046,0.0015,-0.0023,-0.0047,-0.0071,-0.0069,-0.0069,-0.0015,-0.0006,-0.0021,-0.0106,-0.0106,-0.0105,0,0.0042,0.004,0.0065,0.0079,0.0092,0.0072,0.0074,0.0049,-0.0031,-0.0047,-0.0059,-0.0057,-0.0056,0.001,0.0018,0.0003,0,0,0,0.0072,0.0069,0.009,0.0092,0.0103,0.0086,0.007,0.0051,-0.0018,-0.0009,-0.0088,-0.0092,0.0,-0.0099,-0.0013,-0.0004,-0.0026,0,0]}]]